St. Paul Lake Elmo, MN

2:44 AM CDT on August 18, 2017 (GMT -0500)
St. Paul Lake Elmo

Weather History for K21D - December, 2013

Change the Weather History Date:

Monday, December 23, 2013

  Actual Average (KSTP) Record (KSTP)
Temperature  
Mean Temperature 3 °F -  
Max Temperature 10 °F 23 °F 42 °F (2005)
Min Temperature -4 °F 9 °F -8 °F (2004)
Degree Days  
Heating Degree Days 62    
Moisture  
Dew Point -3 °F    
Average Humidity 76    
Maximum Humidity 85    
Minimum Humidity 66    
Precipitation  
Precipitation 0.00 in - - ()
Sea Level Pressure  
Sea Level Pressure 30.36 in    
Wind  
Wind Speed 9 mph (WNW)    
Max Wind Speed 14 mph    
Max Gust Speed 17 mph    
Visibility 6 miles    
Events Snow    
Averages and records for this station are not official NWS values.
T = Trace of Precipitation, MM = Missing Value Source: NWS Daily Summary

Daily Weather History Graph

Daily Weather History Graph

Search for Another Location

Airport or City:

Trip Planner

Search our weather history database for the weather conditions in past years. The results will help you decide how hot, cold, wet, or windy it might be!

Date:

Astronomy

Dec. 23, 2013 Rise Set
Actual Time 7:47 AM CST 4:33 PM CST
Civil Twilight 7:13 AM CST 5:07 PM CST
Nautical Twilight 6:36 AM CST 5:44 PM CST
Astronomical Twilight 6:00 AM CST 6:20 PM CST
Moon 10:59 PM CST (12/23) 10:58 AM CST (12/23)
Length of Visible Light 9h 53m
Length of Day
8h 46m
Waning Gibbous, 68% of the Moon is Illuminated
Dec 23
Waning Gibbous
Dec 25
Last Quarter
Jan 1
New
Jan 7
First Quarter
Jan 15
Full

Hourly Weather History & Observations

Time (CST) Temp. Windchill Dew Point Humidity Pressure Visibility Wind Dir Wind Speed Gust Speed Precip Events Conditions
12:11 AM 10.4 °F -4.1 °F 6.8 °F 85% 30.20 in 3.0 mi WNW 11.5 mph - N/A Snow Light Snow
12:32 AM 10.4 °F -1.5 °F 6.8 °F 85% 30.20 in 3.0 mi West 8.1 mph - N/A Snow Light Snow
12:52 AM 10.4 °F -1.5 °F 5.0 °F 79% 30.21 in 3.0 mi WNW 8.1 mph - N/A Snow Light Snow
1:11 AM 10.4 °F -2.4 °F 5.0 °F 79% 30.21 in 3.0 mi West 9.2 mph - N/A Snow Light Snow
1:31 AM 8.6 °F -4.7 °F 5.0 °F 85% 30.22 in 2.5 mi West 9.2 mph - N/A Snow Light Snow
1:52 AM 8.6 °F -7.7 °F 3.2 °F 79% 30.22 in 3.0 mi West 13.8 mph - N/A Snow Light Snow
2:11 AM 6.8 °F -9.3 °F 3.2 °F 85% 30.23 in 4.0 mi WNW 12.7 mph - N/A Snow Light Snow
2:31 AM 6.8 °F -9.3 °F 1.4 °F 79% 30.24 in 4.0 mi WNW 12.7 mph - N/A Snow Light Snow
2:52 AM 6.8 °F -9.3 °F 1.4 °F 79% 30.24 in 4.0 mi West 12.7 mph - N/A Snow Light Snow
3:12 AM 5.0 °F -11.6 °F 1.4 °F 85% 30.24 in 4.0 mi WNW 12.7 mph - N/A Snow Light Snow
3:32 AM 5.0 °F -10.8 °F 1.4 °F 85% 30.25 in 5.0 mi WNW 11.5 mph - N/A Snow Light Snow
3:52 AM 5.0 °F -11.6 °F -0.4 °F 78% 30.25 in 7.0 mi WNW 12.7 mph 17.3 mph N/A Snow Light Snow
4:11 AM 5.0 °F -9.1 °F -0.4 °F 78% 30.25 in 4.0 mi WNW 9.2 mph - N/A Snow Light Snow
4:31 AM 5.0 °F -9.1 °F -0.4 °F 78% 30.26 in 4.0 mi West 9.2 mph - N/A Snow Light Snow
4:52 AM 5.0 °F -9.1 °F -0.4 °F 78% 30.26 in 5.0 mi WNW 9.2 mph - N/A Snow Light Snow
5:12 AM 3.2 °F -11.3 °F -0.4 °F 85% 30.26 in 5.0 mi WNW 9.2 mph 17.3 mph N/A Snow Light Snow
5:31 AM 3.2 °F -13.1 °F -0.4 °F 85% 30.27 in 5.0 mi WNW 11.5 mph - N/A   Haze
5:52 AM 3.2 °F -13.1 °F -0.4 °F 85% 30.27 in 5.0 mi WNW 11.5 mph - N/A Snow Light Snow
6:12 AM 3.2 °F -13.9 °F -2.2 °F 78% 30.28 in 4.0 mi WNW 12.7 mph 16.1 mph N/A Snow Light Snow
6:32 AM 3.2 °F -13.1 °F -2.2 °F 78% 30.29 in 5.0 mi WNW 11.5 mph - N/A Snow Light Snow
6:51 AM 3.2 °F -12.2 °F -4.0 °F 72% 30.30 in 4.0 mi West 10.4 mph - N/A Snow Light Snow
7:12 AM 1.4 °F -13.5 °F -4.0 °F 78% 30.31 in 4.0 mi WNW 9.2 mph - N/A Snow Light Snow
7:31 AM 1.4 °F -14.5 °F -4.0 °F 78% 30.32 in 5.0 mi WNW 10.4 mph 16.1 mph N/A Snow Light Snow
7:52 AM 1.4 °F -12.5 °F -4.0 °F 78% 30.32 in 5.0 mi WNW 8.1 mph - N/A   Haze
8:12 AM 1.4 °F -14.5 °F -4.0 °F 78% 30.34 in 7.0 mi WNW 10.4 mph - N/A   Overcast
8:31 AM 1.4 °F -12.5 °F -5.8 °F 72% 30.34 in 7.0 mi WNW 8.1 mph - N/A   Overcast
8:51 AM 1.4 °F -14.5 °F -5.8 °F 72% 30.35 in 5.0 mi WNW 10.4 mph - N/A   Haze
9:12 AM 1.4 °F -14.5 °F -5.8 °F 72% 30.35 in 7.0 mi WNW 10.4 mph - N/A   Overcast
9:31 AM 1.4 °F -14.5 °F -5.8 °F 72% 30.36 in 5.0 mi WNW 10.4 mph - N/A   Haze
9:51 AM 1.4 °F -14.5 °F -5.8 °F 72% 30.36 in 3.0 mi WNW 10.4 mph - N/A Snow Light Snow
10:12 AM 1.4 °F -12.5 °F -5.8 °F 72% 30.37 in 4.0 mi NW 8.1 mph - N/A Snow Light Snow
10:31 AM 1.4 °F -12.5 °F -5.8 °F 72% 30.38 in 7.0 mi WNW 8.1 mph - N/A   Overcast
10:51 AM 1.4 °F -13.5 °F -5.8 °F 72% 30.38 in 10.0 mi NW 9.2 mph - N/A   Scattered Clouds
11:12 AM 1.4 °F -12.5 °F -5.8 °F 72% 30.37 in 10.0 mi WNW 8.1 mph - N/A   Mostly Cloudy
11:31 AM 1.4 °F -13.5 °F -5.8 °F 72% 30.38 in 7.0 mi WNW 9.2 mph - N/A   Mostly Cloudy
11:52 AM 3.2 °F -12.2 °F -5.8 °F 66% 30.38 in 7.0 mi WNW 10.4 mph - N/A   Clear
12:12 PM 3.2 °F -12.2 °F -5.8 °F 66% 30.37 in 10.0 mi WNW 10.4 mph - N/A Snow Light Snow
12:31 PM 3.2 °F -13.1 °F -4.0 °F 72% 30.37 in 10.0 mi WNW 11.5 mph - N/A Snow Light Snow
12:52 PM 3.2 °F -12.2 °F -4.0 °F 72% 30.38 in 10.0 mi WNW 10.4 mph - N/A Snow Light Snow
1:12 PM 3.2 °F -12.2 °F -4.0 °F 72% 30.38 in 10.0 mi NW 10.4 mph 16.1 mph N/A Snow Light Snow
1:31 PM 3.2 °F -12.2 °F -4.0 °F 72% 30.38 in 10.0 mi WNW 10.4 mph - N/A   Overcast
1:52 PM 3.2 °F -10.3 °F -4.0 °F 72% 30.38 in 10.0 mi NW 8.1 mph - N/A Snow Light Snow
2:12 PM 3.2 °F -11.3 °F -5.8 °F 66% 30.39 in 7.0 mi NW 9.2 mph - N/A Snow Light Snow
2:31 PM 3.2 °F -12.2 °F -4.0 °F 72% 30.39 in 3.0 mi NW 10.4 mph - N/A Snow Light Snow
2:52 PM 3.2 °F -11.3 °F -4.0 °F 72% 30.39 in 4.0 mi NW 9.2 mph - N/A Snow Light Snow
3:12 PM 3.2 °F -11.3 °F -4.0 °F 72% 30.40 in 5.0 mi NW 9.2 mph - N/A Snow Light Snow
3:31 PM 3.2 °F -11.3 °F -4.0 °F 72% 30.41 in 5.0 mi NW 9.2 mph - N/A Snow Light Snow
3:52 PM 3.2 °F -11.3 °F -4.0 °F 72% 30.42 in 4.0 mi NNW 9.2 mph - N/A Snow Light Snow
4:12 PM 1.4 °F -9.9 °F -4.0 °F 78% 30.42 in 3.0 mi NNW 5.8 mph - N/A Snow Light Snow
4:31 PM 1.4 °F -11.3 °F -4.0 °F 78% 30.43 in 3.0 mi NW 6.9 mph - N/A Snow Light Snow
4:52 PM 1.4 °F -9.9 °F -4.0 °F 78% 30.43 in 4.0 mi NW 5.8 mph - N/A Snow Light Snow
5:12 PM 1.4 °F -8.3 °F -4.0 °F 78% 30.44 in 4.0 mi WNW 4.6 mph - N/A Snow Light Snow
5:31 PM 1.4 °F -12.5 °F -4.0 °F 78% 30.44 in 5.0 mi NW 8.1 mph - N/A Snow Light Snow
5:52 PM 1.4 °F -9.9 °F -4.0 °F 78% 30.45 in 5.0 mi WNW 5.8 mph - N/A Snow Light Snow
6:11 PM 1.4 °F -11.3 °F -4.0 °F 78% 30.46 in 5.0 mi WNW 6.9 mph - N/A Snow Light Snow
6:32 PM 1.4 °F -13.5 °F -4.0 °F 78% 30.47 in 7.0 mi WNW 9.2 mph - N/A Snow Light Snow
6:52 PM 1.4 °F -11.3 °F -4.0 °F 78% 30.47 in 7.0 mi WNW 6.9 mph - N/A Snow Light Snow
7:11 PM 1.4 °F -14.5 °F -5.8 °F 72% 30.48 in 7.0 mi WNW 10.4 mph - N/A Snow Light Snow
7:32 PM 1.4 °F -12.5 °F -5.8 °F 72% 30.48 in 7.0 mi WNW 8.1 mph - N/A Snow Light Snow
7:52 PM 1.4 °F -12.5 °F -5.8 °F 72% 30.48 in 7.0 mi WNW 8.1 mph - N/A Snow Light Snow
8:11 PM 1.4 °F -8.3 °F -5.8 °F 72% 30.48 in 5.0 mi WNW 4.6 mph - N/A Snow Light Snow
8:32 PM 1.4 °F -11.3 °F -5.8 °F 72% 30.48 in 7.0 mi WNW 6.9 mph - N/A Snow Light Snow
8:52 PM 1.4 °F -8.3 °F -5.8 °F 72% 30.48 in 10.0 mi NW 4.6 mph - N/A Snow Light Snow
9:11 PM -0.4 °F -8.3 °F -5.8 °F 78% 30.48 in 7.0 mi NW 3.5 mph - N/A Snow Light Snow
9:32 PM -0.4 °F -8.3 °F -5.8 °F 78% 30.47 in 4.0 mi WNW 3.5 mph - N/A Snow Light Snow
9:52 PM -0.4 °F -12.0 °F -7.6 °F 72% 30.48 in 3.0 mi WNW 5.8 mph - N/A Snow Light Snow
10:11 PM -0.4 °F -8.3 °F -7.6 °F 72% 30.48 in 7.0 mi WNW 3.5 mph - N/A Snow Light Snow
10:32 PM -2.2 °F - -7.6 °F 78% 30.48 in 10.0 mi Calm Calm - N/A   Mostly Cloudy
10:52 PM -4.0 °F - -7.6 °F 85% 30.48 in 7.0 mi Calm Calm - N/A Snow Light Snow
11:11 PM -2.2 °F - -7.6 °F 78% 30.46 in 10.0 mi Calm Calm - N/A   Overcast
11:32 PM -2.2 °F -10.4 °F -7.6 °F 78% 30.47 in 7.0 mi West 3.5 mph - N/A Snow Light Snow
11:52 PM -2.2 °F - -7.6 °F 78% 30.46 in 10.0 mi Calm Calm - N/A Snow Light Snow